Pensacola, FL

1:07 PM CDT on March 29, 2017 (GMT -0500)
Pensacola Regional

Weather History for KPNS - March, 2013

Change the Weather History Date:

Friday, March 29, 2013

  Actual Average Record
Temperature  
Mean Temperature 58 °F 63 °F  
Max Temperature 71 °F 72 °F 83 °F (1974)
Min Temperature 44 °F 54 °F 34 °F (1955)
Degree Days  
Heating Degree Days 7 4  
Month to date heating degree days 256 170  
Since 1 July heating degree days 1137 1478  
Cooling Degree Days 0 2  
Month to date cooling degree days 10 30  
Year to date cooling degree days 50 44  
Growing Degree Days 8 (Base 50)    
Moisture  
Dew Point 44 °F    
Average Humidity 56    
Maximum Humidity 89    
Minimum Humidity 22    
Precipitation  
Precipitation 0.00 in 0.19 in 3.22 in (1980)
Month to date precipitation 1.55 5.46  
Year to date precipitation 15.82 15.15  
Snow  
Snow 0.00 in 0.00 in - ()
Month to date snowfall 0.0 0.0  
Since 1 July snowfall 0.0 0.0  
Snow Depth 0.00 in    
Sea Level Pressure  
Sea Level Pressure 30.29 in    
Wind  
Wind Speed 5 mph (South)    
Max Wind Speed 16 mph    
Max Gust Speed 23 mph    
Visibility 10 miles    
Events      
T = Trace of Precipitation, MM = Missing Value Source: NWS Daily Summary

Daily Weather History Graph

Daily Weather History Graph

Search for Another Location

Airport or City:

Trip Planner

Search our weather history database for the weather conditions in past years. The results will help you decide how hot, cold, wet, or windy it might be!

Date:

Astronomy

Mar. 29, 2013 Rise Set
Actual Time 6:41 AM CDT 7:06 PM CDT
Civil Twilight 6:17 AM CDT 7:30 PM CDT
Nautical Twilight 5:48 AM CDT 7:58 PM CDT
Astronomical Twilight 5:20 AM CDT 8:27 PM CDT
Moon 9:51 PM CDT 8:01 AM CDT
Length of Visible Light 13h 13m
Length of Day
12h 24m
Waning Gibbous, 93% of the Moon is Illuminated
Mar 29
Waning Gibbous
Apr 2
Last Quarter
Apr 10
New
Apr 18
First Quarter
Apr 25
Full

Hourly Weather History & Observations

Time (CDT) Temp. Windchill Dew Point Humidity Pressure Visibility Wind Dir Wind Speed Gust Speed Precip Events Conditions
12:53 AM 51.1 °F - 39.9 °F 66% 30.31 in 10.0 mi Calm Calm - N/A   Clear
1:53 AM 46.9 °F - 39.9 °F 77% 30.31 in 10.0 mi North 3.5 mph - N/A   Clear
2:53 AM 46.9 °F - 42.1 °F 83% 30.30 in 10.0 mi North 5.8 mph - N/A   Clear
3:53 AM 46.9 °F - 41.0 °F 80% 30.29 in 10.0 mi Calm Calm - N/A   Clear
4:53 AM 46.0 °F - 41.0 °F 83% 30.29 in 10.0 mi Calm Calm - N/A   Clear
5:53 AM 45.0 °F 42.6 °F 41.0 °F 86% 30.30 in 10.0 mi NNE 4.6 mph - N/A   Clear
6:53 AM 45.0 °F - 41.0 °F 86% 30.32 in 10.0 mi Calm Calm - N/A   Clear
7:53 AM 51.1 °F - 45.0 °F 80% 30.33 in 10.0 mi Calm Calm - N/A   Clear
8:53 AM 60.1 °F - 41.0 °F 49% 30.34 in 10.0 mi NE 3.5 mph - N/A   Clear
9:53 AM 64.0 °F - 35.1 °F 34% 30.36 in 10.0 mi Calm Calm - N/A   Clear
10:53 AM 66.0 °F - 26.1 °F 22% 30.35 in 10.0 mi East 3.5 mph - N/A   Clear
11:53 AM 68.0 °F - 32.0 °F 26% 30.32 in 10.0 mi SSE 8.1 mph - N/A   Clear
12:53 PM 70.0 °F - 36.0 °F 29% 30.30 in 10.0 mi South 11.5 mph 24.2 mph N/A   Clear
1:53 PM 69.1 °F - 41.0 °F 36% 30.29 in 10.0 mi SSW 10.4 mph - N/A   Clear
2:53 PM 69.1 °F - 44.1 °F 40% 30.27 in 10.0 mi SSW 11.5 mph - N/A   Clear
3:53 PM 68.0 °F - 46.9 °F 47% 30.25 in 10.0 mi SW 12.7 mph - N/A   Clear
4:53 PM 66.9 °F - 50.0 °F 54% 30.25 in 10.0 mi South 12.7 mph - N/A   Clear
5:53 PM 64.9 °F - 51.1 °F 61% 30.24 in 10.0 mi South 13.8 mph - N/A   Clear
6:53 PM 62.1 °F - 51.1 °F 67% 30.25 in 10.0 mi SSW 5.8 mph - N/A   Clear
7:53 PM 59.0 °F - 52.0 °F 78% 30.25 in 10.0 mi South 3.5 mph - N/A   Clear
8:53 PM 57.9 °F - 52.0 °F 81% 30.25 in 10.0 mi SSE 4.6 mph - N/A   Clear
9:53 PM 57.0 °F - 53.1 °F 87% 30.26 in 10.0 mi SSE 3.5 mph - N/A   Clear
10:53 PM 57.9 °F - 53.1 °F 84% 30.26 in 10.0 mi Calm Calm - N/A   Clear
11:53 PM 57.0 °F - 53.1 °F 87% 30.24 in 10.0 mi Calm Calm - N/A   Clear